Cosmos 2369 - Orbit

View from above orbital plane
View from above orbital plane
View from above satellite
View from above satellite

Ground track
Ground track

The orbit data is extracted from the following two-line orbital elements,

1 26069U 00006A   13168.71935172  .00000349  00000-0  21155-3 0  9963
2 26069 070.9936 178.1513 0012447 281.2755 127.0247 14.13163127689783
Epoch (UTC): 17 June 2013 17:15:51
Eccentricity: 0.0012447
inclination: 70.9936°
perigee height: 839 km
apogee height: 857 km
right ascension of ascending node: 178.1513°
argument of perigee: 281.2755°
revolutions per day: 14.13163127
mean anomaly at epoch: 127.0247°
orbit number at epoch: 68978

The dashed part of the orbit path shows where the satellite is in the earth's shadow,  

Developed and maintained by Chris Peat, Heavens-Above GmbH. Please read the updated FAQ before sending e-mail. Imprint. DLR